,,,PA_Meas_PMT16A,,PR_Meas_QMR101_102,,RH_Meas_QMH101,,SR_Meas_QMS101,,TA_Meas_QMH101,,GenWind,,GenWind,
date,time,status,PA,status,PR,status,RH,status,SR,status,TA,status,DirAvg,status,SpdAvg,
2008-06-16, 00:00:04,VALID,1011.92,VALID,0,VALID,92.9732,VALID,0,VALID,22.2719,VALID,20,VALID,0.782031,
2008-06-16, 00:01:04,VALID,1011.93,VALID,0,VALID,93.1867,VALID,0.105969,VALID,22.2719,VALID,3,VALID,0.550391,
2008-06-16, 00:02:04,VALID,1011.92,VALID,0,VALID,93.324,VALID,0,VALID,22.2312,VALID,29,VALID,0.396484,
2008-06-16, 00:03:04,VALID,1011.9,VALID,0,VALID,93.3087,VALID,0,VALID,22.2134,VALID,61,VALID,0.540234,
2008-06-16, 00:04:04,VALID,1011.89,VALID,0,VALID,93.446,VALID,0,VALID,22.2118,VALID,61,VALID,0.407031,
2008-06-16, 00:05:04,VALID,1011.88,VALID,0,VALID,93.6442,VALID,0,VALID,22.194,VALID,64,VALID,0.306641,
2008-06-16, 00:06:04,VALID,1011.87,VALID,0,VALID,93.69,VALID,0.105969,VALID,22.1745,VALID,61,VALID,0.433984,
2008-06-16, 00:07:04,VALID,1011.88,VALID,0,VALID,93.8196,VALID,0,VALID,22.1745,VALID,61,VALID,0.176172,
2008-06-16, 00:08:04,VALID,1011.88,VALID,0,VALID,93.9874,VALID,0,VALID,22.1745,VALID,61,VALID,0.128516,
2008-06-16, 00:09:04,VALID,1011.88,VALID,0,VALID,94.0179,VALID,0.105969,VALID,22.155,VALID,61,VALID,0,
2008-06-16, 00:10:04,VALID,1011.9,VALID,0,VALID,94.056,VALID,0,VALID,22.155,VALID,61,VALID,0.229297,
2008-06-16, 00:11:04,VALID,1011.9,VALID,0,VALID,94.0408,VALID,0,VALID,22.1355,VALID,61,VALID,0.0710938,
2008-06-16, 00:12:04,VALID,1011.92,VALID,0,VALID,94.1018,VALID,0,VALID,22.1144,VALID,61,VALID,0.0222656,
2008-06-16, 00:13:04,VALID,1011.91,VALID,0,VALID,93.9569,VALID,0,VALID,22.1161,VALID,61,VALID,0.599609,
2008-06-16, 00:14:04,VALID,1011.92,VALID,0,VALID,93.9569,VALID,0.105969,VALID,22.1355,VALID,61,VALID,0.202344,
2008-06-16, 00:15:04,VALID,1011.89,VALID,0,VALID,94.0103,VALID,0.105969,VALID,22.1355,VALID,61,VALID,0.0265625,
2008-06-16, 00:16:04,VALID,1011.9,VALID,0,VALID,94.056,VALID,0,VALID,22.155,VALID,61,VALID,0.205469,
2008-06-16, 00:17:04,VALID,1011.89,VALID,0,VALID,94.1781,VALID,0.105969,VALID,22.155,VALID,61,VALID,0.275781,
2008-06-16, 00:18:04,VALID,1011.86,VALID,0,VALID,94.0332,VALID,0,VALID,22.155,VALID,80,VALID,0.508203,
2008-06-16, 00:19:04,VALID,1011.88,VALID,0,VALID,94.1247,VALID,0,VALID,22.155,VALID,86,VALID,0.323047,
2008-06-16, 00:20:04,VALID,1011.86,VALID,0,VALID,94.0713,VALID,0.105969,VALID,22.155,VALID,85,VALID,0.00585938,
2008-06-16, 00:21:04,VALID,1011.84,VALID,0,VALID,94.056,VALID,0.105969,VALID,22.1339,VALID,85,VALID,0,
2008-06-16, 00:22:04,VALID,1011.81,VALID,0,VALID,93.9722,VALID,0.105969,VALID,22.1355,VALID,85,VALID,0,
2008-06-16, 00:23:04,VALID,1011.82,VALID,0,VALID,93.9035,VALID,0,VALID,22.1355,VALID,85,VALID,0.196875,
2008-06-16, 00:24:04,VALID,1011.81,VALID,0,VALID,93.9112,VALID,0,VALID,22.1161,VALID,86,VALID,0.295703,
2008-06-16, 00:25:04,VALID,1011.78,VALID,0,VALID,93.7891,VALID,0.105969,VALID,22.1144,VALID,86,VALID,0.131641,
2008-06-16, 00:26:04,VALID,1011.78,VALID,0,VALID,93.751,VALID,0,VALID,22.1355,VALID,86,VALID,0,
2008-06-16, 00:27:04,VALID,1011.77,VALID,0,VALID,93.6595,VALID,0,VALID,22.1144,VALID,86,VALID,0,
2008-06-16, 00:28:04,VALID,1011.77,VALID,0,VALID,93.6824,VALID,0.105969,VALID,22.155,VALID,86,VALID,0.0996094,
2008-06-16, 00:29:04,VALID,1011.78,VALID,0,VALID,94.0027,VALID,0,VALID,22.155,VALID,47,VALID,0.698438,
2008-06-16, 00:30:04,VALID,1011.75,VALID,0,VALID,94.0027,VALID,0,VALID,22.1355,VALID,39,VALID,0.700391,
2008-06-16, 00:31:04,VALID,1011.73,VALID,0,VALID,93.9798,VALID,0,VALID,22.1355,VALID,37,VALID,0.806641,
2008-06-16, 00:32:04,VALID,1011.72,VALID,0,VALID,93.9722,VALID,0,VALID,22.1161,VALID,38,VALID,0.725781,
2008-06-16, 00:33:04,VALID,1011.72,VALID,0,VALID,94.1094,VALID,0.105969,VALID,22.1161,VALID,36,VALID,0.392969,
2008-06-16, 00:34:04,VALID,1011.7,VALID,0,VALID,94.0942,VALID,0,VALID,22.0771,VALID,38,VALID,0.464844,
2008-06-16, 00:35:04,VALID,1011.67,VALID,0,VALID,94.1247,VALID,0,VALID,22.0576,VALID,60,VALID,0.465625,
2008-06-16, 00:36:04,VALID,1011.68,VALID,0,VALID,94.2086,VALID,0,VALID,22.0576,VALID,61,VALID,0.205859,
2008-06-16, 00:37:04,VALID,1011.63,VALID,0,VALID,94.2619,VALID,0,VALID,22.0576,VALID,62,VALID,0.392188,
2008-06-16, 00:38:04,VALID,1011.65,VALID,0,VALID,94.2924,VALID,0,VALID,22.0576,VALID,62,VALID,0.258594,
2008-06-16, 00:39:04,VALID,1011.67,VALID,0,VALID,94.3382,VALID,0,VALID,22.0576,VALID,62,VALID,0.117578,
2008-06-16, 00:40:04,VALID,1011.67,VALID,0,VALID,94.3992,VALID,0,VALID,22.056,VALID,77,VALID,0.376172,
2008-06-16, 00:41:04,VALID,1011.65,VALID,0,VALID,94.3229,VALID,0,VALID,22.0771,VALID,108,VALID,0.709766,
2008-06-16, 00:42:04,VALID,1011.67,VALID,0,VALID,94.2467,VALID,0,VALID,22.0771,VALID,108,VALID,0.708984,
2008-06-16, 00:43:04,VALID,1011.67,VALID,0,VALID,94.1399,VALID,0.105969,VALID,22.0966,VALID,95,VALID,0.755078,
2008-06-16, 00:44:04,VALID,1011.66,VALID,0,VALID,94.0179,VALID,0.105969,VALID,22.0754,VALID,94,VALID,0.770703,
2008-06-16, 00:45:04,VALID,1011.66,VALID,0,VALID,93.9188,VALID,0,VALID,22.0966,VALID,88,VALID,0.659375,
2008-06-16, 00:46:04,VALID,1011.63,VALID,0,VALID,94.0408,VALID,0,VALID,22.1161,VALID,50,VALID,0.558203,
2008-06-16, 00:47:04,VALID,1011.63,VALID,0,VALID,94.1247,VALID,0,VALID,22.1355,VALID,41,VALID,0.350781,
2008-06-16, 00:48:04,VALID,1011.64,VALID,0,VALID,94.2391,VALID,0,VALID,22.1161,VALID,41,VALID,0.171875,
2008-06-16, 00:49:04,VALID,1011.6,VALID,0,VALID,94.1552,VALID,0,VALID,22.0771,VALID,54,VALID,0.515625,
2008-06-16, 00:50:04,VALID,1011.62,VALID,0,VALID,94.2162,VALID,0,VALID,22.0771,VALID,71,VALID,0.43125,
2008-06-16, 00:51:04,VALID,1011.58,VALID,0,VALID,94.2772,VALID,0,VALID,22.0771,VALID,83,VALID,0.683594,
2008-06-16, 00:52:04,VALID,1011.55,VALID,0,VALID,94.2467,VALID,0,VALID,22.0576,VALID,89,VALID,0.753125,
2008-06-16, 00:53:04,VALID,1011.55,VALID,0,VALID,94.3458,VALID,0,VALID,22.0576,VALID,83,VALID,0.791797,
2008-06-16, 00:54:04,VALID,1011.51,VALID,0,VALID,94.4602,VALID,0,VALID,22.0576,VALID,97,VALID,0.933594,
2008-06-16, 00:55:04,VALID,1011.51,VALID,0,VALID,94.4907,VALID,0.105969,VALID,22.0365,VALID,92,VALID,0.932422,
2008-06-16, 00:56:04,VALID,1011.49,VALID,0,VALID,94.5365,VALID,0,VALID,22.0576,VALID,106,VALID,0.925,
2008-06-16, 00:57:04,VALID,1011.47,VALID,0,VALID,94.4907,VALID,0,VALID,22.0382,VALID,100,VALID,1.04414,
2008-06-16, 00:58:04,VALID,1011.45,VALID,0,VALID,94.4678,VALID,0,VALID,22.0382,VALID,95,VALID,1.11133,
2008-06-16, 00:59:04,VALID,1011.45,VALID,0,VALID,94.5517,VALID,0,VALID,22.0382,VALID,93,VALID,0.869531,
2008-06-16, 01:00:04,VALID,1011.45,VALID,0,VALID,94.6432,VALID,0,VALID,22.0382,VALID,94,VALID,0.667188,
2008-06-16, 01:01:04,VALID,1011.42,VALID,0,VALID,94.6356,VALID,0,VALID,22.0187,VALID,80,VALID,0.863672,
2008-06-16, 01:02:04,VALID,1011.42,VALID,0,VALID,94.5822,VALID,0,VALID,21.9992,VALID,77,VALID,1.1125,
2008-06-16, 01:03:04,VALID,1011.43,VALID,0,VALID,94.5441,VALID,0,VALID,22.0187,VALID,80,VALID,1.26875,
2008-06-16, 01:04:04,VALID,1011.43,VALID,0,VALID,94.5975,VALID,0.105969,VALID,22.0187,VALID,82,VALID,0.864453,
2008-06-16, 01:05:04,VALID,1011.42,VALID,0,VALID,94.6203,VALID,0,VALID,22.0187,VALID,86,VALID,0.749219,
2008-06-16, 01:06:04,VALID,1011.42,VALID,0,VALID,94.5822,VALID,0,VALID,21.9992,VALID,89,VALID,0.827344,
2008-06-16, 01:07:04,VALID,1011.41,VALID,0,VALID,94.5517,VALID,0,VALID,21.9992,VALID,98,VALID,1.25625,
2008-06-16, 01:08:04,VALID,1011.41,VALID,0,VALID,94.4907,VALID,0,VALID,21.9992,VALID,110,VALID,1.1793,
2008-06-16, 01:09:04,VALID,1011.37,VALID,0,VALID,94.4678,VALID,0,VALID,22.0187,VALID,99,VALID,1.07773,
2008-06-16, 01:10:04,VALID,1011.38,VALID,0,VALID,94.4526,VALID,0,VALID,22.0382,VALID,110,VALID,0.867188,
2008-06-16, 01:11:04,VALID,1011.34,VALID,0,VALID,94.506,VALID,0,VALID,22.0593,VALID,146,VALID,0.685938,
2008-06-16, 01:12:04,VALID,1011.32,VALID,0,VALID,94.4602,VALID,0,VALID,22.0593,VALID,132,VALID,1.00195,
2008-06-16, 01:13:04,VALID,1011.3,VALID,0,VALID,94.4145,VALID,0,VALID,22.0382,VALID,133,VALID,1.14375,
2008-06-16, 01:14:04,VALID,1011.31,VALID,0,VALID,94.4602,VALID,0,VALID,22.0382,VALID,114,VALID,0.830469,
2008-06-16, 01:15:04,VALID,1011.29,VALID,0,VALID,94.4145,VALID,0,VALID,22.0187,VALID,137,VALID,1.24609,
2008-06-16, 01:16:04,VALID,1011.3,VALID,0,VALID,94.3992,VALID,0,VALID,22.0187,VALID,129,VALID,1.03555,
2008-06-16, 01:17:04,VALID,1011.31,VALID,0,VALID,94.4526,VALID,0,VALID,22.0187,VALID,121,VALID,0.836328,
2008-06-16, 01:18:04,VALID,1011.31,VALID,0,VALID,94.3382,VALID,0,VALID,21.9992,VALID,133,VALID,1.25117,
2008-06-16, 01:19:04,VALID,1011.29,VALID,0,VALID,94.2543,VALID,0,VALID,22.0204,VALID,125,VALID,1.10938,
2008-06-16, 01:20:04,VALID,1011.28,VALID,0,VALID,94.2162,VALID,0,VALID,21.9992,VALID,141,VALID,1.17734,
2008-06-16, 01:21:04,VALID,1011.25,VALID,0,VALID,94.2848,VALID,0,VALID,21.9975,VALID,143,VALID,1.03359,
2008-06-16, 01:22:04,VALID,1011.24,VALID,0,VALID,94.3077,VALID,0,VALID,21.9992,VALID,121,VALID,0.811328,
2008-06-16, 01:23:04,VALID,1011.22,VALID,0,VALID,94.2162,VALID,0,VALID,21.9992,VALID,107,VALID,0.815625,
2008-06-16, 01:24:04,VALID,1011.18,VALID,0,VALID,94.2543,VALID,0,VALID,21.9797,VALID,128,VALID,0.854688,
2008-06-16, 01:25:04,VALID,1011.17,VALID,0,VALID,94.2772,VALID,0,VALID,21.9992,VALID,110,VALID,0.934766,
2008-06-16, 01:26:04,VALID,1011.16,VALID,0,VALID,94.2238,VALID,0,VALID,21.9992,VALID,144,VALID,1.06914,
2008-06-16, 01:27:04,VALID,1011.16,VALID,0,VALID,94.1018,VALID,0,VALID,21.9586,VALID,137,VALID,1.36289,
2008-06-16, 01:28:04,VALID,1011.12,VALID,0,VALID,94.1781,VALID,0,VALID,21.9797,VALID,125,VALID,1.24063,
2008-06-16, 01:29:04,VALID,1011.13,VALID,0,VALID,94.1399,VALID,0.105969,VALID,22.0187,VALID,130,VALID,1.09297,
2008-06-16, 01:30:04,VALID,1011.06,VALID,0,VALID,94.1552,VALID,0,VALID,21.9603,VALID,134,VALID,1.02539,
2008-06-16, 01:31:04,VALID,1011.08,VALID,0,VALID,94.2772,VALID,0.105969,VALID,21.9586,VALID,130,VALID,1.18906,
2008-06-16, 01:32:04,VALID,1011.05,VALID,0,VALID,94.2314,VALID,0.105969,VALID,21.9586,VALID,115,VALID,1.025,
2008-06-16, 01:33:04,VALID,1011.01,VALID,0,VALID,94.2848,VALID,0,VALID,21.9603,VALID,114,VALID,1.12852,
2008-06-16, 01:34:04,VALID,1011.01,VALID,0,VALID,94.3001,VALID,0,VALID,21.9603,VALID,124,VALID,1.16758,
2008-06-16, 01:35:04,VALID,1010.99,VALID,0,VALID,94.2924,VALID,0.105969,VALID,21.9603,VALID,145,VALID,0.793359,
2008-06-16, 01:36:04,VALID,1010.96,VALID,0,VALID,94.3229,VALID,0.105969,VALID,21.9603,VALID,132,VALID,0.873828,
2008-06-16, 01:37:04,VALID,1010.91,VALID,0,VALID,94.2772,VALID,0.105969,VALID,21.9408,VALID,137,VALID,1.16328,
2008-06-16, 01:38:04,VALID,1010.91,VALID,0,VALID,94.1628,VALID,0,VALID,21.9408,VALID,135,VALID,1.26328,
2008-06-16, 01:39:04,VALID,1010.89,VALID,0,VALID,94.1704,VALID,0,VALID,21.9408,VALID,131,VALID,1.12266,
2008-06-16, 01:40:04,VALID,1010.84,VALID,0,VALID,94.2009,VALID,0.105969,VALID,21.9196,VALID,124,VALID,1.3832,
2008-06-16, 01:41:04,VALID,1010.83,VALID,0,VALID,94.2009,VALID,0.105969,VALID,21.9213,VALID,123,VALID,1.47969,
2008-06-16, 01:42:04,VALID,1010.78,VALID,0,VALID,94.2543,VALID,0.105969,VALID,21.9002,VALID,130,VALID,1.55078,
2008-06-16, 01:43:04,VALID,1010.76,VALID,0,VALID,94.2543,VALID,0,VALID,21.9213,VALID,133,VALID,1.29883,
2008-06-16, 01:44:04,VALID,1010.76,VALID,0,VALID,94.4145,VALID,0,VALID,21.9196,VALID,136,VALID,1.18438,
2008-06-16, 01:45:04,VALID,1010.74,VALID,0,VALID,94.3916,VALID,0,VALID,21.9018,VALID,131,VALID,1.23711,
2008-06-16, 01:46:04,VALID,1010.78,VALID,0,VALID,94.4221,VALID,0,VALID,21.9018,VALID,148,VALID,1.2457,
2008-06-16, 01:47:04,VALID,1010.75,VALID,0,VALID,94.3611,VALID,0.105969,VALID,21.8824,VALID,146,VALID,1.43906,
2008-06-16, 01:48:04,VALID,1010.78,VALID,0,VALID,94.3916,VALID,0.105969,VALID,21.9018,VALID,144,VALID,1.1125,
2008-06-16, 01:49:04,VALID,1010.79,VALID,0,VALID,94.3687,VALID,0.105969,VALID,21.8824,VALID,143,VALID,1.17461,
2008-06-16, 01:50:04,VALID,1010.78,VALID,0,VALID,94.4373,VALID,0,VALID,21.8824,VALID,167,VALID,0.81875,
2008-06-16, 01:51:04,VALID,1010.76,VALID,0,VALID,94.4755,VALID,0.105969,VALID,21.8629,VALID,167,VALID,0.846094,
2008-06-16, 01:52:04,VALID,1010.72,VALID,0,VALID,94.4526,VALID,0.105969,VALID,21.8629,VALID,156,VALID,1.29297,
2008-06-16, 01:53:04,VALID,1010.7,VALID,0,VALID,94.506,VALID,0,VALID,21.9018,VALID,160,VALID,0.944531,
2008-06-16, 01:54:04,VALID,1010.67,VALID,0,VALID,94.5593,VALID,0,VALID,21.8418,VALID,158,VALID,0.774219,
2008-06-16, 01:55:04,VALID,1010.65,VALID,0,VALID,94.628,VALID,0,VALID,21.9018,VALID,153,VALID,0.919531,
2008-06-16, 01:56:04,VALID,1010.65,VALID,0,VALID,94.6585,VALID,0.105969,VALID,21.8629,VALID,126,VALID,0.885547,
2008-06-16, 01:57:04,VALID,1010.63,VALID,0,VALID,94.6814,VALID,0.105969,VALID,21.8434,VALID,138,VALID,0.494922,
2008-06-16, 01:58:04,VALID,1010.63,VALID,0,VALID,94.7271,VALID,0.105969,VALID,21.8824,VALID,132,VALID,0.53125,
2008-06-16, 01:59:04,VALID,1010.62,VALID,0,VALID,94.7576,VALID,0.105969,VALID,21.8824,VALID,148,VALID,0.435547,
2008-06-16, 02:00:04,VALID,1010.59,VALID,0,VALID,94.7729,VALID,0.105969,VALID,21.8612,VALID,113,VALID,0.701953,
2008-06-16, 02:01:04,VALID,1010.6,VALID,0,VALID,94.7881,VALID,0.105969,VALID,21.8629,VALID,113,VALID,0.298828,
2008-06-16, 02:02:04,VALID,1010.59,VALID,0,VALID,94.811,VALID,0.105969,VALID,21.8824,VALID,126,VALID,0.666016,
2008-06-16, 02:03:04,VALID,1010.57,VALID,0,VALID,94.8644,VALID,0.105969,VALID,21.8824,VALID,147,VALID,0.616016,
2008-06-16, 02:04:04,VALID,1010.53,VALID,0,VALID,94.9025,VALID,0,VALID,21.9018,VALID,129,VALID,0.677344,
2008-06-16, 02:05:04,VALID,1010.53,VALID,0,VALID,94.8873,VALID,0.105969,VALID,21.9018,VALID,133,VALID,0.633203,
2008-06-16, 02:06:04,VALID,1010.56,VALID,0,VALID,94.8873,VALID,0,VALID,21.9002,VALID,139,VALID,0.885156,
2008-06-16, 02:07:04,VALID,1010.52,VALID,0,VALID,94.8034,VALID,0,VALID,21.9213,VALID,140,VALID,1.25312,
2008-06-16, 02:08:04,VALID,1010.5,VALID,0,VALID,94.6585,VALID,0.105969,VALID,21.9408,VALID,130,VALID,1.16953,
2008-06-16, 02:09:04,VALID,1010.53,VALID,0,VALID,94.6432,VALID,0.105969,VALID,21.9408,VALID,130,VALID,1.57187,
2008-06-16, 02:10:04,VALID,1010.5,VALID,0,VALID,94.5746,VALID,0.105969,VALID,21.9391,VALID,125,VALID,1.39258,
2008-06-16, 02:11:04,VALID,1010.49,VALID,0,VALID,94.5365,VALID,0.105969,VALID,21.9408,VALID,150,VALID,0.939453,
2008-06-16, 02:12:04,VALID,1010.49,VALID,0,VALID,94.5212,VALID,0.105969,VALID,21.9213,VALID,122,VALID,0.979688,
2008-06-16, 02:13:04,VALID,1010.5,VALID,0,VALID,94.5365,VALID,0,VALID,21.9196,VALID,127,VALID,0.610547,
2008-06-16, 02:14:04,VALID,1010.51,VALID,0,VALID,94.5441,VALID,0.105969,VALID,21.9408,VALID,115,VALID,1.07383,
2008-06-16, 02:15:04,VALID,1010.48,VALID,0,VALID,94.4983,VALID,0.105969,VALID,21.9408,VALID,134,VALID,0.987891,
2008-06-16, 02:16:04,VALID,1010.52,VALID,0,VALID,94.506,VALID,0.105969,VALID,21.9408,VALID,102,VALID,0.896875,
2008-06-16, 02:17:04,VALID,1010.55,VALID,0,VALID,94.4526,VALID,0.105969,VALID,21.9408,VALID,101,VALID,1.25273,
2008-06-16, 02:18:04,VALID,1010.55,VALID,0,VALID,94.3839,VALID,0.105969,VALID,21.9408,VALID,101,VALID,0.941797,
2008-06-16, 02:19:04,VALID,1010.54,VALID,0,VALID,94.3458,VALID,0,VALID,21.9213,VALID,99,VALID,1.02305,
2008-06-16, 02:20:04,VALID,1010.53,VALID,0,VALID,94.4221,VALID,0,VALID,21.9603,VALID,102,VALID,0.689062,
2008-06-16, 02:21:04,VALID,1010.54,VALID,0,VALID,94.4068,VALID,0.105969,VALID,21.9603,VALID,120,VALID,1.13672,
2008-06-16, 02:22:04,VALID,1010.5,VALID,0,VALID,94.445,VALID,0,VALID,21.9603,VALID,101,VALID,1.26133,
2008-06-16, 02:23:04,VALID,1010.52,VALID,0,VALID,94.3534,VALID,0,VALID,21.9603,VALID,99,VALID,1.2168,
2008-06-16, 02:24:04,VALID,1010.49,VALID,0,VALID,94.2619,VALID,0.105969,VALID,21.9603,VALID,91,VALID,1.14141,
2008-06-16, 02:25:04,VALID,1010.5,VALID,0,VALID,94.1857,VALID,0,VALID,21.9586,VALID,110,VALID,1.40117,
2008-06-16, 02:26:04,VALID,1010.47,VALID,0,VALID,94.2467,VALID,0,VALID,21.9603,VALID,96,VALID,1.04844,
2008-06-16, 02:27:04,VALID,1010.48,VALID,0,VALID,94.3153,VALID,0,VALID,21.9797,VALID,98,VALID,0.969531,
2008-06-16, 02:28:04,VALID,1010.44,VALID,0,VALID,94.2924,VALID,0.105969,VALID,21.9603,VALID,92,VALID,1.14297,
2008-06-16, 02:29:04,VALID,1010.45,VALID,0,VALID,94.3001,VALID,0,VALID,21.9196,VALID,108,VALID,1.35898,
2008-06-16, 02:30:04,VALID,1010.46,VALID,0,VALID,94.2696,VALID,0.105969,VALID,21.9603,VALID,113,VALID,1.1168,
2008-06-16, 02:31:04,VALID,1010.43,VALID,0,VALID,94.2848,VALID,0,VALID,21.9603,VALID,109,VALID,1.18555,
2008-06-16, 02:32:04,VALID,1010.41,VALID,0,VALID,94.3382,VALID,0,VALID,21.9391,VALID,130,VALID,0.633203,
2008-06-16, 02:33:04,VALID,1010.4,VALID,0,VALID,94.3687,VALID,0,VALID,21.9603,VALID,125,VALID,0.671875,
2008-06-16, 02:34:04,VALID,1010.42,VALID,0,VALID,94.3306,VALID,0,VALID,21.9408,VALID,129,VALID,0.826172,
2008-06-16, 02:35:04,VALID,1010.45,VALID,0,VALID,94.3916,VALID,0,VALID,21.9408,VALID,154,VALID,0.919141,
2008-06-16, 02:36:04,VALID,1010.47,VALID,0,VALID,94.3763,VALID,0.105969,VALID,21.9213,VALID,145,VALID,0.762891,
2008-06-16, 02:37:04,VALID,1010.46,VALID,0,VALID,94.3153,VALID,0.105969,VALID,21.9213,VALID,113,VALID,1.00859,
2008-06-16, 02:38:04,VALID,1010.45,VALID,0,VALID,94.3534,VALID,0.105969,VALID,21.9213,VALID,150,VALID,0.704297,
2008-06-16, 02:39:04,VALID,1010.45,VALID,0,VALID,94.4221,VALID,0.105969,VALID,21.9213,VALID,133,VALID,0.536719,
2008-06-16, 02:40:04,VALID,1010.45,VALID,0,VALID,94.4297,VALID,0.105969,VALID,21.9018,VALID,124,VALID,0.508984,
2008-06-16, 02:41:04,VALID,1010.46,VALID,0,VALID,94.4983,VALID,0,VALID,21.9213,VALID,122,VALID,0.424219,
2008-06-16, 02:42:04,VALID,1010.5,VALID,0,VALID,94.4678,VALID,0.105969,VALID,21.9002,VALID,113,VALID,0.7,
2008-06-16, 02:43:04,VALID,1010.46,VALID,0,VALID,94.5441,VALID,0,VALID,21.9213,VALID,111,VALID,0.615625,
2008-06-16, 02:44:04,VALID,1010.49,VALID,0,VALID,94.4831,VALID,0,VALID,21.9002,VALID,89,VALID,0.820703,
2008-06-16, 02:45:04,VALID,1010.44,VALID,0,VALID,94.5746,VALID,0,VALID,21.9196,VALID,96,VALID,0.708984,
2008-06-16, 02:46:04,VALID,1010.49,VALID,0,VALID,94.5517,VALID,0.105969,VALID,21.9196,VALID,84,VALID,0.773828,
2008-06-16, 02:47:04,VALID,1010.46,VALID,0,VALID,94.5822,VALID,0,VALID,21.9408,VALID,82,VALID,0.921875,
2008-06-16, 02:48:04,VALID,1010.45,VALID,0,VALID,94.5136,VALID,0.105969,VALID,21.9002,VALID,98,VALID,1.28242,
2008-06-16, 02:49:04,VALID,1010.47,VALID,0,VALID,94.5212,VALID,0,VALID,21.9213,VALID,85,VALID,0.992188,
2008-06-16, 02:50:04,VALID,1010.45,VALID,0,VALID,94.5288,VALID,0.105969,VALID,21.9408,VALID,93,VALID,0.910547,
2008-06-16, 02:51:04,VALID,1010.44,VALID,0,VALID,94.6203,VALID,0.105969,VALID,21.9603,VALID,86,VALID,0.717578,
2008-06-16, 02:52:04,VALID,1010.41,VALID,0,VALID,94.5822,VALID,0,VALID,21.9408,VALID,100,VALID,1.07539,
2008-06-16, 02:53:04,VALID,1010.41,VALID,0,VALID,94.5136,VALID,0,VALID,21.9213,VALID,99,VALID,1.03711,
2008-06-16, 02:54:04,VALID,1010.37,VALID,0,VALID,94.5746,VALID,0.105969,VALID,21.9196,VALID,103,VALID,0.683594,
2008-06-16, 02:55:04,VALID,1010.35,VALID,0,VALID,94.6966,VALID,0,VALID,21.9213,VALID,144,VALID,0.8,
2008-06-16, 02:56:04,VALID,1010.35,VALID,0,VALID,94.6585,VALID,0.105969,VALID,21.9213,VALID,145,VALID,0.625,
2008-06-16, 02:57:04,VALID,1010.32,VALID,0,VALID,94.6432,VALID,0,VALID,21.9213,VALID,137,VALID,0.953906,
2008-06-16, 02:58:04,VALID,1010.36,VALID,0,VALID,94.6127,VALID,0.105969,VALID,21.9213,VALID,148,VALID,0.941406,
2008-06-16, 02:59:04,VALID,1010.34,VALID,0,VALID,94.6051,VALID,0,VALID,21.9213,VALID,127,VALID,0.527344,
2008-06-16, 03:00:04,VALID,1010.34,VALID,0,VALID,94.6203,VALID,0,VALID,21.9213,VALID,129,VALID,0.391797,
2008-06-16, 03:01:04,VALID,1010.35,VALID,0,VALID,94.5898,VALID,0.105969,VALID,21.9213,VALID,129,VALID,0.342187,
2008-06-16, 03:02:04,VALID,1010.33,VALID,0,VALID,94.6203,VALID,0.105969,VALID,21.9213,VALID,139,VALID,0.597266,
2008-06-16, 03:03:04,VALID,1010.29,VALID,0,VALID,94.6127,VALID,0,VALID,21.9213,VALID,137,VALID,0.33125,
2008-06-16, 03:04:04,VALID,1010.31,VALID,0,VALID,94.6203,VALID,0,VALID,21.9213,VALID,133,VALID,0.398047,
2008-06-16, 03:05:04,VALID,1010.26,VALID,0,VALID,94.628,VALID,0,VALID,21.9018,VALID,130,VALID,0.355859,
2008-06-16, 03:06:04,VALID,1010.23,VALID,0,VALID,94.6661,VALID,0.105969,VALID,21.9213,VALID,130,VALID,0.301953,
2008-06-16, 03:07:04,VALID,1010.2,VALID,0,VALID,94.7119,VALID,0.105969,VALID,21.9408,VALID,130,VALID,0.215625,
2008-06-16, 03:08:04,VALID,1010.2,VALID,0,VALID,94.7576,VALID,0,VALID,21.9408,VALID,130,VALID,0.128516,
2008-06-16, 03:09:04,VALID,1010.17,VALID,0,VALID,94.8262,VALID,0,VALID,21.9603,VALID,113,VALID,0.386719,
2008-06-16, 03:10:04,VALID,1010.19,VALID,0,VALID,94.8186,VALID,0,VALID,21.9603,VALID,118,VALID,0.467187,
2008-06-16, 03:11:04,VALID,1010.22,VALID,0,VALID,94.7957,VALID,0,VALID,21.9408,VALID,123,VALID,0.185937,
2008-06-16, 03:12:04,VALID,1010.24,VALID,0,VALID,94.8415,VALID,0.105969,VALID,21.9603,VALID,123,VALID,0.248437,
2008-06-16, 03:13:04,VALID,1010.24,VALID,0,VALID,94.8262,VALID,0,VALID,21.9781,VALID,122,VALID,0.5,
2008-06-16, 03:14:04,VALID,1010.25,VALID,0,VALID,94.7805,VALID,0,VALID,21.9797,VALID,120,VALID,0.347656,
2008-06-16, 03:15:04,VALID,1010.27,VALID,0,VALID,94.689,VALID,0,VALID,21.9603,VALID,120,VALID,0.201562,
2008-06-16, 03:16:04,VALID,1010.28,VALID,0,VALID,94.6585,VALID,0,VALID,21.9603,VALID,120,VALID,0,
2008-06-16, 03:17:04,VALID,1010.27,VALID,0,VALID,94.6661,VALID,0,VALID,21.9797,VALID,26,VALID,0.495703,
2008-06-16, 03:18:04,VALID,1010.27,VALID,0,VALID,94.6203,VALID,0,VALID,21.9797,VALID,25,VALID,0.617188,
2008-06-16, 03:19:04,VALID,1010.29,VALID,0,VALID,94.5975,VALID,0,VALID,21.9603,VALID,19,VALID,0.649219,
2008-06-16, 03:20:04,VALID,1010.28,VALID,0,VALID,94.5898,VALID,0,VALID,21.9992,VALID,18,VALID,0.621484,
2008-06-16, 03:21:04,VALID,1010.3,VALID,0,VALID,94.7042,VALID,0,VALID,21.9408,VALID,18,VALID,0.361719,
2008-06-16, 03:22:04,VALID,1010.34,VALID,0,VALID,94.75,VALID,0,VALID,21.9603,VALID,18,VALID,0.117969,
2008-06-16, 03:23:04,VALID,1010.32,VALID,0,VALID,94.7042,VALID,0,VALID,21.9213,VALID,18,VALID,0.353516,
2008-06-16, 03:24:04,VALID,1010.34,VALID,0,VALID,94.7119,VALID,0.105969,VALID,21.9213,VALID,82,VALID,0.583984,
2008-06-16, 03:25:04,VALID,1010.33,VALID,0,VALID,94.6814,VALID,0,VALID,21.9018,VALID,87,VALID,0.6125,
2008-06-16, 03:26:04,VALID,1010.31,VALID,0,VALID,94.7347,VALID,0,VALID,21.9035,VALID,58,VALID,0.367578,
2008-06-16, 03:27:04,VALID,1010.31,VALID,0,VALID,94.7576,VALID,0,VALID,21.9018,VALID,59,VALID,0.159766,
2008-06-16, 03:28:04,VALID,1010.3,VALID,0,VALID,94.8186,VALID,0,VALID,21.8824,VALID,62,VALID,0.469531,
2008-06-16, 03:29:04,VALID,1010.3,VALID,0,VALID,94.8415,VALID,0,VALID,21.8629,VALID,69,VALID,0.357812,
2008-06-16, 03:30:04,VALID,1010.27,VALID,0,VALID,94.8491,VALID,0.105969,VALID,21.8824,VALID,72,VALID,0.498047,
2008-06-16, 03:31:04,VALID,1010.29,VALID,0,VALID,94.8873,VALID,0,VALID,21.8824,VALID,75,VALID,0.796875,
2008-06-16, 03:32:04,VALID,1010.27,VALID,0,VALID,94.9406,VALID,0,VALID,21.8824,VALID,76,VALID,0.446484,
2008-06-16, 03:33:04,VALID,1010.26,VALID,0,VALID,94.9788,VALID,0,VALID,21.8824,VALID,79,VALID,0.526172,
2008-06-16, 03:34:04,VALID,1010.24,VALID,0,VALID,94.9788,VALID,0,VALID,21.8824,VALID,99,VALID,0.892187,
2008-06-16, 03:35:04,VALID,1010.23,VALID,0,VALID,94.9406,VALID,0.105969,VALID,21.8824,VALID,100,VALID,1.10664,
2008-06-16, 03:36:04,VALID,1010.19,VALID,0,VALID,94.8873,VALID,0.105969,VALID,21.8629,VALID,97,VALID,1.11367,
2008-06-16, 03:37:04,VALID,1010.2,VALID,0,VALID,94.9406,VALID,0.105969,VALID,21.8824,VALID,97,VALID,0.854297,
2008-06-16, 03:38:04,VALID,1010.21,VALID,0,VALID,94.9406,VALID,0.105969,VALID,21.8824,VALID,113,VALID,0.64375,
2008-06-16, 03:39:04,VALID,1010.19,VALID,0,VALID,94.9711,VALID,0.105969,VALID,21.8824,VALID,115,VALID,0.657031,
2008-06-16, 03:40:04,VALID,1010.19,VALID,0,VALID,95.0321,VALID,0,VALID,21.8807,VALID,111,VALID,0.552344,
2008-06-16, 03:41:04,VALID,1010.18,VALID,0,VALID,95.0626,VALID,0.105969,VALID,21.8807,VALID,96,VALID,0.696094,